Overview Statistics Trail Chart Weather Telemetry Raw packets
 

This is the latest recevied weather packets stored in our database for station/object DB0NLS-15. If no packets are shown the sender has not sent any weather packets the latest 10 day(s).

<< 9 10 11 12 13 14 15 >>
Time Temp. Humidity Pressure Rain* Wind** Luminosity Snow
1788445250 23.33° C 49% 1004.7 hPa 0 mm - - -
1788444647 23.33° C 48% 1004.8 hPa 0 mm - - -
1788444044 23.33° C 48% 1004.8 hPa 0 mm - - -
1788443441 23.33° C 48% 1004.8 hPa 0 mm - - -
1788442839 23.33° C 48% 1004.7 hPa 0 mm - - -
1788442236 23.33° C 47% 1004.6 hPa 0 mm - - -
1788441633 22.22° C 49% 1005 hPa 0 mm - - -
1788441030 22.22° C 48% 1005.1 hPa 0 mm - - -
1788440427 22.78° C 47% 1005.2 hPa 0 mm - - -
1788439824 22.22° C 48% 1005.4 hPa 0 mm - - -
1788439222 22.22° C 48% 1005.6 hPa 0 mm - - -
1788438619 21.67° C 49% 1005.7 hPa 0 mm - - -
1788438016 21.67° C 49% 1005.8 hPa 0 mm - - -
1788437473 21.67° C 49% 1006 hPa 0 mm - - -
1788436870 21.11° C 48% 1005.9 hPa 0 mm - - -
1788436267 21.11° C 49% 1006 hPa 0 mm - - -
1788435664 21.11° C 48% 1006.2 hPa 0 mm - - -
1788435061 21.11° C 49% 1006.3 hPa 0 mm - - -
1788434459 21.11° C 52% 1006.4 hPa 0 mm - - -
1788433855 21.11° C 53% 1006.3 hPa 0 mm - - -
1788433255 20.56° C 53% 1006.3 hPa 0 mm - - -
1788432650 20.56° C 54% 1006.3 hPa 0 mm - - -
1788432047 20.56° C 54% 1006.5 hPa 0 mm - - -
1788431444 20.56° C 54% 1006.8 hPa 0 mm - - -
1788430841 20.56° C 54% 1007 hPa 0 mm - - -

* Rain latest hour (hover to see other rain measurements)
** Current wind speed in m/s (hover to see current wind gust speed)